This demonstration page uses our WeatherBlox Daily Observations layout. Learn more.

Hourly Observations for June 17, 2020

Temp ( °F °C ) Dew Point ( °F °C ) Humidity (%) Winds ( mph kmh ) Pressure ( in mb ) Visibility ( mi km ) Precip ( " mm )
12:15 am 00:15 Clear 76 24.7 58 14.5 53 53 SSE 13 20 29.8 1009 10 16.0934 0 0
12:35 am 00:35 Clear 76 24.6 58 14.5 53 53 SSE 17 28 29.8 1009 10 16.0934 0 0
12:55 am 00:55 Clear 76 24.3 58 14.5 54 54 SSE 17 28 29.8 1009 10 16.0934 0 0
1:15 am 01:15 Clear 75 24.1 58 14.6 55 55 SSE 16 26 29.8 1009 10 16.0934 0 0
1:35 am 01:35 Clear 75 23.8 58 14.7 57 57 SSE 17 28 29.8 1009 10 16.0934 0 0
1:55 am 01:55 Clear 75 23.7 59 14.9 58 58 SSE 17 28 29.8 1009 10 16.0934 0 0
2:15 am 02:15 Clear 74 23.6 59 15.1 59 59 SSE 18 30 29.8 1009 10 16.0934 0 0
2:35 am 02:35 Clear 74 23.5 60 15.3 60 60 SSE 17 28 29.79 1009 10 16.0934 0 0
2:55 am 02:55 Clear 74 23.2 60 15.5 62 62 SSE 17 28 29.79 1009 10 16.0934 0 0
3:15 am 03:15 Clear 73 23 60 15.5 63 63 S 17 28 29.79 1009 10 16.0934 0 0
3:35 am 03:35 Clear 73 23 60 15.5 63 63 SSE 16 26 29.79 1009 10 16.0934 0 0
3:55 am 03:55 Clear 73 23 60 15.5 63 63 SSE 17 28 29.79 1009 10 16.0934 0 0
4:15 am 04:15 Clear 73 23 60 15.5 63 63 SSE 16 26 29.78 1009 10 16.0934 0 0
4:35 am 04:35 Clear 73 22.7 60 15.6 64 64 SSE 15 24 29.79 1009 10 16.0934 0 0
4:55 am 04:55 Clear 73 22.6 60 15.6 65 65 SSE 15 24 29.79 1009 10 16.0934 0 0
5:15 am 05:15 Clear 73 22.5 60 15.6 65 65 SSE 15 24 29.78 1008 10 16.0934 0 0
5:35 am 05:35 Clear 72 22.2 60 15.7 67 67 SSE 14 22 29.78 1008 10 16.0934 0 0
5:55 am 05:55 Clear 72 22 60 15.8 68 68 SSE 15 24 29.78 1009 10 16.0934 0 0
6:15 am 06:15 Sunny 71 21.8 61 16 70 70 SSE 18 30 29.78 1009 10 16.0934 0 0
6:35 am 06:35 Sunny 72 22 61 16.2 70 70 SSE 16 26 29.78 1009 10 16.0934 0 0
6:55 am 06:55 Sunny 72 22 62 16.5 71 71 SSE 17 28 29.78 1009 10 16.0934 0 0
7:15 am 07:15 Sunny 73 22.5 62 16.6 69 69 SSE 18 30 29.78 1008 10 16.0934 0 0
7:35 am 07:35 Sunny 73 23 62 16.7 68 68 SSE 22 35 29.76 1008 10 16.0934 0 0
7:55 am 07:55 Sunny 74 23.5 62 16.7 66 66 SSE 21 33 29.76 1008 10 16.0934 0 0
8:15 am 08:15 Sunny 75 24.1 62 16.7 63 63 SSE 23 37 29.75 1008 10 16.0934 0 0
8:35 am 08:35 Sunny 76 24.6 63 17 63 63 S 20 31 29.75 1007 10 16.0934 0 0
8:55 am 08:55 Sunny 77 25 63 17 61 61 S 25 41 29.75 1007 10 16.0934 0 0
9:15 am 09:15 Sunny 78 25.8 63 17 58 58 S 26 43 29.74 1007 10 16.0934 0 0
9:35 am 09:35 Sunny 79 26.3 63 17.1 57 57 S 25 41 29.74 1007 10 16.0934 0 0
9:55 am 09:55 Sunny 80 26.6 63 17 56 56 S 26 43 29.74 1007 10 16.0934 0 0
10:15 am 10:15 Sunny 81 27.1 63 17.1 54 54 SSE 24 39 29.73 1007 10 16.0934 0 0
10:35 am 10:35 Sunny 82 27.7 63 17.2 53 53 S 24 39 29.72 1006 10 16.0934 0 0
10:55 am 10:55 Sunny 83 28.3 63 17.1 51 51 SSE 24 39 29.71 1006 10 16.0934 0 0
11:15 am 11:15 Sunny 84 28.9 63 17.1 49 49 SSE 21 33 29.71 1006 10 16.0934 0 0
11:35 am 11:35 Sunny 85 29.2 63 17 48 48 SSE 25 41 29.69 1006 10 16.0934 0 0
11:55 am 11:55 Sunny 86 30 62 16.9 45 45 S 20 31 29.69 1005 10 16.0934 0 0
12:15 pm 12:15 Sunny 88 30.9 62 16.9 43 43 S 24 39 29.67 1005 10 16.0934 0 0
12:35 pm 12:35 Sunny 88 31.1 62 16.8 42 42 S 23 37 29.66 1004 10 16.0934 0 0
12:55 pm 12:55 Sunny 89 31.6 62 16.5 40 40 S 23 37 29.66 1004 10 16.0934 0 0
1:15 pm 13:15 Sunny 90 32.2 62 16.4 39 39 S 23 37 29.65 1004 10 16.0934 0 0
1:35 pm 13:35 Sunny 90 32.4 61 16.1 37 37 SSE 28 44 29.64 1004 10 16.0934 0 0
1:55 pm 13:55 Sunny 91 33 61 16.2 36 36 S 29 46 29.64 1004 10 16.0934 0 0
2:15 pm 14:15 Sunny 92 33.2 60 15.8 35 35 SSE 30 48 29.62 1003 10 16.0934 0 0
2:35 pm 14:35 Sunny 92 33.6 60 15.5 34 34 S 32 52 29.62 1003 10 16.0934 0 0
2:55 pm 14:55 Sunny 93 33.8 60 15.3 33 33 S 31 50 29.61 1003 10 16.0934 0 0
3:15 pm 15:15 Sunny 93 34.1 60 15.5 33 33 S 31 50 29.6 1002 10 16.0934 0 0
3:35 pm 15:35 Sunny 93 34.1 59 15 32 32 S 25 41 29.6 1002 10 16.0934 0 0
3:55 pm 15:55 Sunny 93 34.1 59 15 32 32 S 32 52 29.6 1002 10 16.0934 0 0
4:15 pm 16:15 Sunny 94 34.3 58 14.5 30 30 S 29 46 29.59 1002 10 16.0934 0 0
4:35 pm 16:35 Sunny 94 34.3 58 14.5 30 30 S 30 48 29.59 1002 10 16.0934 0 0
4:55 pm 16:55 Sunny 94 34.4 58 14.5 30 30 S 30 48 29.59 1002 10 16.0934 0 0
5:15 pm 17:15 Sunny 94 34.3 58 14.3 30 30 S 25 41 29.58 1002 10 16.0934 0 0
5:35 pm 17:35 Sunny 94 34.4 57 14 29 29 S 30 48 29.59 1002 10 16.0934 0 0
5:55 pm 17:55 Sunny 94 34.2 57 14.1 30 30 S 28 44 29.58 1002 10 16.0934 0 0
6:15 pm 18:15 Sunny 94 34.2 58 14.3 30 30 S 23 37 29.58 1002 10 16.0934 0 0
6:35 pm 18:35 Sunny 93 34 58 14.7 31 31 S 23 37 29.57 1001 10 16.0934 0 0
6:55 pm 18:55 Sunny 92 33.6 59 14.9 32 32 S 23 37 29.58 1002 10 16.0934 0 0
7:15 pm 19:15 Sunny 91 33 59 14.9 34 34 S 24 39 29.59 1002 10 16.0934 0 0
7:35 pm 19:35 Sunny 91 32.5 59 14.9 34 34 S 21 33 29.59 1002 10 16.0934 0 0
7:55 pm 19:55 Sunny 89 31.9 58 14.6 35 35 SSE 17 28 29.6 1003 10 16.0934 0 0
8:15 pm 20:15 Sunny 88 31.3 58 14.6 36 36 SSE 15 24 29.61 1003 10 16.0934 0 0
8:35 pm 20:35 Sunny 87 30.6 58 14.4 37 37 SSE 16 26 29.61 1003 10 16.0934 0 0
8:55 pm 20:55 Sunny 86 29.9 58 14.2 38 38 SSE 14 22 29.62 1003 10 16.0934 0 0
9:15 pm 21:15 Clear 85 29.4 57 14.1 39 39 SSE 14 22 29.61 1003 10 16.0934 0 0
9:35 pm 21:35 Clear 83 28.6 57 14.1 41 41 SSE 16 26 29.62 1003 10 16.0934 0 0
9:55 pm 21:55 Clear 83 28.5 56 13.6 40 40 SSE 16 26 29.62 1003 10 16.0934 0 0
10:15 pm 22:15 Clear 82 28 57 13.9 42 42 SSE 20 31 29.62 1003 10 16.0934 0 0
10:35 pm 22:35 Clear 82 27.9 56 13.3 41 41 SSE 18 30 29.62 1003 10 16.0934 0 0
10:55 pm 22:55 Clear 82 27.5 55 13 41 41 SSE 18 30 29.64 1004 10 16.0934 0 0
11:15 pm 23:15 Clear 82 27.6 55 12.7 40 40 SSE 20 31 29.64 1004 10 16.0934 0 0
11:35 pm 23:35 Clear 81 27.3 55 12.6 40 40 SSE 22 35 29.65 1004 10 16.0934 0 0
11:55 pm 23:55 Clear 81 27.1 55 12.5 40 40 SSE 21 33 29.66 1004 10 16.0934 0 0

Powered by AerisWeather